DW0224 Weather Reports


time (UTC)temp
C
wind
direction
speed
KPH
gust
KPH
rain 1hr
cm
rain 24hr
cm
rain mn
cm
humidity
%
barometer
mb
20260506201433 9 173 1.6 3.2 0.00 0.00 0.00 77 1006.3
20260506201206 9 204 0.0 3.2 0.00 0.00 0.00 78 1006.1
20260506200433 9 292 0.0 3.2 0.00 0.00 0.00 79 1006.1
20260506200200 9 93 0.0 1.6 0.00 0.00 0.00 79 1006.1
20260506195431 9 348 0.0 1.6 0.00 0.00 0.00 80 1006.0
20260506194931 9 331 0.0 1.6 0.00 0.00 0.00 80 1006.0
20260506194914 9 292 0.0 1.6 0.00 0.00 0.00 81 1006.0
20260506193932 9 219 0.0 1.6 0.00 0.00 0.00 81 1006.0
20260506193432 9 205 0.0 1.6 0.00 0.00 0.00 81 1006.0
20260506192932 9 254 0.0 0.0 0.00 0.00 0.00 81 1006.0
20260506192644 9 254 0.0 0.0 0.00 0.00 0.00 80 1006.0
20260506192404 9 254 0.0 0.0 0.00 0.00 0.00 79 1006.0
20260506191425 9 254 0.0 0.0 0.00 0.00 0.00 79 1005.7
20260506190925 9 254 0.0 0.0 0.00 0.00 0.00 79 1005.7
20260506190413 9 254 0.0 0.0 0.00 0.00 0.00 79 1005.7
20260506185911 10 254 0.0 0.0 0.00 0.00 0.00 79 1005.6
20260506185412 10 254 0.0 0.0 0.00 0.00 0.00 79 1005.6
20260506184910 10 254 0.0 0.0 0.00 0.00 0.00 79 1005.6
20260506184409 10 254 0.0 0.0 0.00 0.00 0.00 79 1005.4
20260506184133 10 254 0.0 0.0 0.00 0.00 0.00 79 1005.4
20260506183405 10 254 0.0 0.0 0.00 0.00 0.00 79 1005.4
20260506183136 10 254 0.0 0.0 0.00 0.00 0.00 80 1005.4
20260506182627 11 254 0.0 0.0 0.00 0.00 0.00 80 1005.4
20260506181903 11 254 0.0 0.0 0.00 0.00 0.00 80 1005.4
20260506181850 11 254 0.0 0.0 0.00 0.00 0.00 80 1005.3
20260506180904 11 254 0.0 0.0 0.00 0.00 0.00 80 1005.3
20260506180404 11 254 0.0 0.0 0.00 0.00 0.00 79 1005.3
20260506175904 11 254 0.0 0.0 0.00 0.00 0.00 79 1005.1
20260506175403 11 254 0.0 0.0 0.00 0.00 0.00 79 1005.1
20260506174904 11 254 0.0 0.0 0.00 0.00 0.00 79 1005.1
20260506174403 11 254 0.0 0.0 0.00 0.00 0.00 78 1005.0
20260506173903 11 254 0.0 0.0 0.00 0.00 0.00 78 1005.0
20260506173404 11 254 0.0 1.6 0.00 0.00 0.00 78 1005.0
20260506172904 11 255 0.0 1.6 0.00 0.00 0.00 78 1004.9
20260506172403 11 255 0.0 1.6 0.00 0.00 0.00 78 1004.9
20260506171904 11 255 0.0 3.2 0.00 0.00 0.00 77 1004.9
20260506171403 11 236 0.0 3.2 0.00 0.00 0.00 78 1004.9
20260506170903 11 223 0.0 3.2 0.00 0.00 0.00 78 1004.9
20260506170404 11 277 0.0 3.2 0.00 0.00 0.00 79 1004.9
20260506165904 11 248 0.0 3.2 0.00 0.00 0.00 79 1004.9
20260506165404 11 237 0.0 1.6 0.00 0.00 0.00 78 1004.9
20260506164903 11 236 0.0 3.2 0.00 0.00 0.00 78 1004.9
20260506164403 11 169 0.0 3.2 0.00 0.00 0.00 78 1004.9
20260506163903 11 216 0.0 3.2 0.00 0.00 0.00 79 1004.9
20260506163404 11 260 0.0 3.2 0.00 0.00 0.00 79 1004.9
20260506162905 11 254 0.0 4.8 0.00 0.00 0.00 79 1004.9
20260506162405 11 192 1.6 4.8 0.00 0.00 0.00 79 1004.9
20260506161905 11 259 1.6 6.4 0.00 0.00 0.00 79 1004.9
20260506161404 11 252 1.6 6.4 0.00 0.00 0.00 79 1004.9
20260506160905 11 248 1.6 11.3 0.00 0.00 0.00 80 1004.9
20260506160404 11 240 3.2 12.9 0.00 0.00 0.00 80 1004.9
20260506160128 11 239 1.6 12.9 0.00 0.00 0.00 81 1005.0
20260506155403 11 266 1.6 4.8 0.00 0.00 0.00 81 1005.0
20260506154904 11 277 0.0 3.2 0.00 0.00 0.00 82 1005.0
20260506154403 11 239 1.6 3.2 0.00 0.00 0.00 82 1005.0
20260506154130 11 196 1.6 4.8 0.00 0.00 0.00 82 1005.0
20260506153631 11 284 1.6 8.0 0.00 0.00 0.00 82 1005.0
20260506152904 11 245 1.6 8.0 0.00 0.00 0.00 82 1005.0
20260506152403 11 176 1.6 6.4 0.00 0.00 0.00 82 1005.0
20260506151904 11 254 1.6 6.4 0.00 0.00 0.00 82 1005.0
20260506151403 11 259 1.6 4.8 0.00 0.00 0.00 81 1005.1
20260506150903 11 227 1.6 6.4 0.00 0.00 0.00 81 1005.1
20260506150403 11 244 1.6 6.4 0.00 0.00 0.00 82 1005.1
20260506145903 11 248 1.6 8.0 0.00 0.00 0.00 81 1004.9
20260506145403 11 260 1.6 8.0 0.00 0.00 0.00 81 1004.9
20260506144904 11 292 1.6 4.8 0.00 0.00 0.00 82 1004.9
20260506144403 11 261 1.6 9.7 0.00 0.00 0.00 82 1004.9
20260506143903 11 267 3.2 12.9 0.00 0.00 0.00 81 1004.9
20260506143403 11 265 3.2 16.1 0.00 0.00 0.00 81 1004.9
20260506142903 11 195 3.2 16.1 0.00 0.00 0.00 80 1004.9
20260506142404 11 163 1.6 8.0 0.00 0.00 0.00 81 1004.9
20260506141903 11 205 1.6 8.0 0.00 0.00 0.00 82 1004.9
20260506141403 11 329 1.6 6.4 0.00 0.00 0.00 82 1004.9
20260506140903 11 130 1.6 4.8 0.00 0.00 0.00 82 1004.9
20260506140403 11 201 1.6 11.3 0.00 0.00 0.00 83 1004.9
20260506135903 11 256 1.6 11.3 0.00 0.00 0.00 83 1004.9
20260506135404 11 255 1.6 3.2 0.00 0.00 0.00 83 1004.9
20260506135353 11 238 1.6 3.2 0.00 0.00 0.00 83 1004.9
20260506134404 11 235 1.6 8.0 0.00 0.00 0.00 84 1004.9
20260506133903 11 281 1.6 8.0 0.00 0.00 0.00 85 1004.9
20260506133403 11 259 1.6 8.0 0.00 0.00 0.00 86 1004.9
20260506132903 11 251 1.6 8.0 0.00 0.00 0.00 85 1004.9
20260506132405 11 267 1.6 8.0 0.00 0.00 0.00 86 1004.9
20260506131904 11 288 1.6 9.7 0.00 0.00 0.00 85 1004.9
20260506131628 11 188 1.6 9.7 0.00 0.00 0.00 84 1004.9
20260506130903 11 246 3.2 14.5 0.00 0.00 0.00 84 1004.9
20260506130404 11 225 3.2 14.5 0.00 0.00 0.00 83 1004.9
20260506125903 11 298 1.6 8.0 0.00 0.00 0.00 85 1004.9
20260506125406 11 212 1.6 9.7 0.00 0.00 0.00 84 1004.9
20260506125359 11 223 3.2 16.1 0.00 0.00 0.00 85 1004.9
20260506124404 11 288 3.2 16.1 0.00 0.00 0.00 84 1004.5
20260506123904 11 303 3.2 16.1 0.00 0.00 0.00 84 1004.5
20260506123403 11 261 3.2 11.3 0.00 0.00 0.00 85 1004.5
20260506122903 11 258 1.6 11.3 0.00 0.00 0.00 85 1004.1
20260506122405 11 271 1.6 11.3 0.00 0.00 0.00 86 1004.1
20260506121905 11 196 3.2 11.3 0.00 0.00 0.00 86 1004.1
20260506121628 10 230 3.2 9.7 0.00 0.00 0.00 89 1004.3
20260506120904 10 277 1.6 9.7 0.00 0.00 0.00 90 1004.3
20260506120629 10 227 1.6 9.7 0.00 0.00 0.00 90 1004.3
20260506120357 10 276 3.2 11.3 0.00 0.00 0.00 90 1004.3
20260506115626 10 284 3.2 11.3 0.00 0.00 0.00 91 1004.3
20260506114903 10 271 3.2 12.9 0.00 0.00 0.00 93 1004.3
20260506114404 10 254 4.8 12.9 0.00 0.00 0.00 94 1004.2
20260506113917 10 199 4.8 12.9 0.00 0.00 0.00 94 1004.2
20260506113627 11 280 3.2 12.9 0.00 0.00 0.00 95 1004.2
20260506112904 11 225 0.0 6.4 0.00 0.00 0.00 96 1004.2
20260506112404 10 233 0.0 3.2 0.00 0.00 0.00 96 1004.2
20260506111904 10 240 0.0 6.4 0.00 0.00 0.00 96 1004.2
20260506111404 10 204 0.0 6.4 0.00 0.00 0.00 96 1004.4
20260506110916 10 178 0.0 3.2 0.00 0.00 0.00 95 1004.4
20260506110402 10 211 0.0 3.2 0.00 0.00 0.00 95 1004.4
20260506105902 10 228 1.6 3.2 0.00 0.00 0.00 95 1004.4
20260506105403 10 260 0.0 3.2 0.00 0.00 0.00 95 1004.4
20260506104904 10 246 1.6 3.2 0.00 0.00 0.00 94 1004.4
20260506104402 10 251 1.6 11.3 0.00 0.00 0.00 94 1004.5
20260506103902 10 263 1.6 11.3 0.00 0.00 0.00 94 1004.5
20260506103400 10 259 1.6 6.4 0.00 0.00 0.00 94 1004.5
20260506103332 10 238 1.6 6.4 0.00 0.00 0.00 94 1004.4
20260506102348 10 278 1.6 8.0 0.00 0.00 0.00 94 1004.4
20260506101358 10 279 3.2 8.0 0.00 0.00 0.00 93 1004.2
20260506100856 10 227 1.6 8.0 0.00 0.00 0.00 94 1004.2
20260506100356 10 233 3.2 19.3 0.00 0.00 0.00 93 1004.2
20260506095856 10 190 3.2 19.3 0.00 0.00 0.00 93 1003.8
20260506095358 11 213 1.6 9.7 0.00 0.00 0.00 92 1003.8
20260506094857 11 242 1.6 8.0 0.00 0.00 0.00 92 1003.8
20260506094350 11 272 3.2 11.3 0.00 0.00 0.00 92 1003.4
20260506093838 11 201 1.6 11.3 0.00 0.00 0.00 92 1003.4
20260506093334 11 214 0.0 0.0 0.00 0.00 0.00 91 1003.4
20260506092835 11 258 0.0 0.0 0.00 0.00 0.00 91 1003.4
20260506092540 11 198 0.0 0.0 0.00 0.00 0.00 90 1003.4
20260506091334 11 202 0.0 0.0 0.00 0.00 0.00 89 1003.0
20260506090834 11 250 0.0 0.0 0.00 0.00 0.00 89 1003.0
20260506090334 11 250 0.0 0.0 0.00 0.00 0.00 88 1003.0
20260506085832 11 250 0.0 0.0 0.00 0.00 0.00 88 1002.7
20260506085332 11 256 0.0 0.0 0.00 0.00 0.00 87 1002.7
20260506084832 11 238 0.0 0.0 0.00 0.00 0.00 86 1002.7
20260506084332 11 227 0.0 0.0 0.00 0.00 0.00 86 1002.6
20260506083833 11 186 0.0 0.0 0.00 0.00 0.00 85 1002.6
20260506083331 12 235 0.0 0.0 0.00 0.00 0.00 85 1002.6
20260506082831 12 215 0.0 0.0 0.00 0.00 0.00 85 1002.3
20260506082345 12 215 0.0 0.0 0.00 0.00 0.00 85 1002.3
20260506081832 12 227 0.0 0.0 0.00 0.00 0.00 85 1002.3
20260506081332 12 248 0.0 0.0 0.00 0.00 0.00 85 1002.2
20260506080832 12 197 0.0 0.0 0.00 0.00 0.00 85 1002.2
20260506080332 12 166 0.0 0.0 0.00 0.00 0.00 85 1002.2
20260506073333 11 212 0.0 0.0 0.00 0.00 0.00 85 1002.1
20260506072832 11 244 0.0 0.0 0.00 0.00 0.00 86 1002.1
20260506072333 11 163 0.0 0.0 0.00 0.00 0.00 86 1002.1
20260506072059 11 242 0.0 0.0 0.00 0.00 0.00 86 1002.1
20260506071558 11 216 0.0 0.0 0.00 0.00 0.00 87 1002.2
20260506070832 11 205 0.0 0.0 0.00 0.00 0.00 88 1002.2
20260506070333 11 237 0.0 0.0 0.00 0.00 0.00 89 1002.2
20260506062333 11 234 0.0 0.0 0.00 0.00 0.00 90 1002.3
20260506061832 11 263 0.0 0.0 0.00 0.00 0.00 91 1002.3
20260506061333 11 260 0.0 0.0 0.00 0.00 0.00 91 1002.2
20260506060833 11 261 0.0 0.0 0.00 0.00 0.00 91 1002.2
20260506060346 11 254 0.0 0.0 0.00 0.00 0.00 92 1002.2
20260506051331 10 213 0.0 0.0 0.00 0.00 0.00 93 1002.6
20260506051059 10 213 0.0 0.0 0.00 0.00 0.00 93 1002.6
20260506050332 10 213 0.0 0.0 0.00 0.00 0.00 93 1002.6
20260506050317 10 213 0.0 0.0 0.00 0.00 0.00 93 1002.6
20260506045057 10 213 0.0 0.0 0.00 0.00 0.00 93 1002.6
20260506044332 10 213 0.0 0.0 0.00 0.00 0.00 93 1002.3
20260506043832 10 213 0.0 0.0 0.00 0.00 0.00 93 1002.3
20260506043824 10 213 0.0 0.0 0.00 0.00 0.00 93 1002.3
20260506042831 10 213 0.0 0.0 0.00 0.00 0.00 93 1002.3
20260506042331 10 213 0.0 0.0 0.00 0.00 0.00 93 1002.3
20260506041832 10 213 0.0 0.0 0.00 0.00 0.00 93 1002.3
20260506041344 10 213 0.0 0.0 0.00 0.00 0.00 93 1002.2
20260506041103 10 213 0.0 0.0 0.00 0.00 0.00 93 1002.2
20260506040333 9 207 0.0 0.0 0.00 0.00 0.00 93 1002.2
20260506035831 9 207 0.0 0.0 0.00 0.00 0.00 93 1002.6
20260506035554 9 207 0.0 0.0 0.00 0.00 0.00 93 1002.6
20260506035058 9 207 0.0 0.0 0.00 0.00 0.00 92 1002.6
20260506034331 9 207 0.0 0.0 0.00 0.00 0.00 92 1002.7
20260506033832 9 207 0.0 0.0 0.00 0.00 0.00 92 1002.7
20260506033331 9 207 0.0 0.0 0.00 0.00 0.00 92 1002.7
20260506032832 9 207 0.0 0.0 0.00 0.00 0.00 92 1002.8
20260506032332 8 207 0.0 0.0 0.00 0.00 0.00 92 1002.8
20260506031831 8 207 0.0 0.0 0.00 0.00 0.00 92 1002.8
20260506031555 8 207 0.0 0.0 0.00 0.00 0.00 91 1002.8
20260506030828 8 207 0.0 0.0 0.00 0.00 0.00 91 1002.8
20260506030328 8 207 0.0 0.0 0.00 0.00 0.00 91 1002.8
20260506025829 8 207 0.0 0.0 0.00 0.00 0.00 91 1003.3
20260506025549 8 207 0.0 0.0 0.00 0.00 0.00 90 1003.3
20260506024825 8 207 0.0 0.0 0.00 0.00 0.00 90 1003.3
20260506024323 9 207 0.0 0.0 0.00 0.00 0.00 90 1003.4
20260506023821 9 207 0.0 0.0 0.00 0.00 0.00 90 1003.4
20260506023319 9 207 0.0 0.0 0.00 0.00 0.00 90 1003.4
20260506022816 9 207 0.0 0.0 0.00 0.00 0.00 90 1003.4
20260506022808 9 207 0.0 0.0 0.00 0.00 0.00 90 1003.4
20260506021813 9 207 0.0 0.0 0.00 0.00 0.00 90 1003.4
20260506021313 9 207 0.0 0.0 0.00 0.00 0.00 89 1003.4
20260506020812 10 207 0.0 0.0 0.00 0.00 0.00 89 1003.4
20260506020542 10 207 0.0 0.0 0.00 0.00 0.00 89 1003.4
20260506015808 10 207 0.0 0.0 0.00 0.00 0.00 89 1003.8
20260506015532 10 207 0.0 0.0 0.00 0.00 0.00 89 1003.8
20260506014809 10 207 0.0 0.0 0.00 0.00 0.00 89 1003.8
20260506014306 10 207 0.0 0.0 0.00 0.00 0.00 89 1003.9
20260506013805 10 207 0.0 0.0 0.00 0.00 0.00 89 1003.9
20260506013304 10 207 0.0 0.0 0.00 0.00 0.00 89 1003.9
20260506012804 10 207 0.0 0.0 0.00 0.00 0.00 89 1003.9
20260506012259 11 207 0.0 0.0 0.00 0.00 0.00 89 1003.9
20260506011748 11 207 0.0 0.0 0.00 0.00 0.00 89 1003.9
20260506011509 11 207 0.0 0.0 0.00 0.00 0.00 89 1003.9
20260506010736 11 207 0.0 0.0 0.00 0.00 0.00 89 1003.9
20260506010500 11 207 0.0 0.0 0.00 0.00 0.00 89 1003.9
20260506010008 11 207 0.0 0.0 0.00 0.00 0.00 89 1004.4
20260506005719 11 207 0.0 0.0 0.00 0.00 0.00 89 1004.4
20260506005004 11 207 0.0 0.0 0.00 0.00 0.00 88 1004.4
20260506004232 11 207 0.0 0.0 0.00 0.00 0.00 88 1004.8
20260506003735 11 207 0.0 0.0 0.00 0.00 0.00 88 1004.8
20260506003232 11 207 0.0 0.0 0.00 0.00 0.00 88 1004.8
20260506002734 11 207 0.0 0.0 0.00 0.00 0.00 88 1004.9
20260506002232 11 207 0.0 0.0 0.00 0.00 0.00 88 1004.9
20260506001733 11 207 0.0 0.0 0.00 0.00 0.00 88 1004.9
20260506001232 11 207 0.0 0.0 0.00 0.00 0.00 87 1004.9
20260506000732 11 207 0.0 0.0 0.00 0.00 0.00 87 1004.9
20260506000233 11 207 0.0 0.0 0.00 0.00 0.00 87 1004.9
20260505235744 11 207 0.0 0.0 0.00 0.00 0.00 87 1004.9
20260505235232 11 207 0.0 0.0 0.00 0.00 0.00 87 1004.9
20260505234732 11 207 0.0 0.0 0.00 0.00 0.00 86 1004.9
20260505234244 11 207 0.0 0.0 0.00 0.00 0.00 86 1005.0
20260505233959 11 207 0.0 0.0 0.00 0.00 0.00 86 1005.0
20260505233232 11 207 0.0 0.0 0.00 0.00 0.00 85 1005.0
20260505233006 11 207 0.0 0.0 0.00 0.00 0.00 85 1005.4
20260505232231 10 207 0.0 0.0 0.00 0.00 0.00 85 1005.4
20260505231958 10 207 0.0 0.0 0.00 0.00 0.00 85 1005.4
20260505231455 10 207 0.0 0.0 0.00 0.00 0.00 85 1005.4
20260505230731 10 207 0.0 0.0 0.00 0.00 0.00 84 1005.4
20260505230232 10 207 0.0 0.0 0.00 0.00 0.00 84 1005.4
20260505225732 10 207 0.0 0.0 0.00 0.00 0.00 84 1005.4
20260505225456 10 207 0.0 0.0 0.00 0.00 0.00 84 1005.4
20260505224959 10 207 0.0 0.0 0.00 0.00 0.00 83 1005.4
20260505224231 10 207 0.0 0.0 0.00 0.00 0.00 83 1005.4
20260505223731 11 207 0.0 0.0 0.00 0.00 0.00 83 1005.4
20260505223232 11 207 0.0 0.0 0.00 0.00 0.00 82 1005.4
20260505222732 11 207 0.0 0.0 0.00 0.00 0.00 82 1005.4
20260505222502 11 207 0.0 0.0 0.00 0.00 0.00 82 1005.4
20260505221732 11 207 0.0 0.0 0.00 0.00 0.00 82 1005.4
20260505221458 11 207 0.0 0.0 0.00 0.00 0.00 82 1005.4
20260505220731 11 207 0.0 0.0 0.00 0.00 0.00 82 1005.4
20260505220233 11 207 0.0 0.0 0.00 0.00 0.00 82 1005.4
20260505220000 11 207 0.0 0.0 0.00 0.00 0.00 82 1005.4
20260505215316 11 207 0.0 0.0 0.00 0.00 0.00 81 1005.4
20260505214743 11 207 0.0 0.0 0.00 0.00 0.00 81 1005.4
20260505214326 11 238 0.0 0.0 0.00 0.00 0.00 80 1005.3
20260505213842 11 238 0.0 0.0 0.00 0.00 0.00 81 1005.3
20260505213233 11 238 0.0 0.0 0.00 0.00 0.00 80 1005.3
20260505212733 11 238 0.0 0.0 0.00 0.00 0.00 80 1005.6
20260505212234 11 238 0.0 0.0 0.00 0.00 0.00 80 1005.6
20260505211732 11 238 0.0 0.0 0.00 0.00 0.00 80 1005.6
20260505211233 11 238 0.0 0.0 0.00 0.00 0.00 80 1005.7
20260505210733 11 238 0.0 0.0 0.00 0.00 0.00 80 1005.7
20260505210455 11 238 0.0 0.0 0.00 0.00 0.00 80 1005.7
20260505205733 11 238 0.0 0.0 0.00 0.00 0.00 80 1005.6
20260505205233 11 238 0.0 0.0 0.00 0.00 0.00 79 1005.6
20260505204733 11 238 0.0 0.0 0.00 0.00 0.00 79 1005.6
20260505204458 11 267 0.0 0.0 0.00 0.00 0.00 78 1005.4
20260505204217 11 267 0.0 0.0 0.00 0.00 0.00 78 1005.4
20260505203502 11 267 0.0 0.0 0.00 0.00 0.00 77 1005.4
20260505202733 11 267 0.0 0.0 0.00 0.00 0.00 77 1005.2
20260505202233 11 267 0.0 0.0 0.00 0.00 0.00 77 1005.2
20260505201733 11 267 0.0 1.6 0.00 0.00 0.00 77 1005.2